TimeHST,TemperatureF,Dew PointF,Humidity,Sea Level PressureIn,VisibilityMPH,Wind Direction,Wind SpeedMPH,Gust SpeedMPH,PrecipitationIn,Events,Conditions,WindDirDegrees,DateUTC
12:56 AM,42.8,35.2,75,30.29,6.0,ESE,4.6,-,N/A,,Clear,120,2013-12-04 10:56:00
1:56 AM,41.9,33.4,72,30.27,12.0,ESE,5.8,-,N/A,,Clear,120,2013-12-04 11:56:00
2:56 AM,43.2,25.3,49,30.24,12.0,ESE,5.8,-,N/A,,Clear,110,2013-12-04 12:56:00
3:56 AM,41.5,24.1,50,30.25,12.0,NNE,5.8,-,N/A,,Clear,30,2013-12-04 13:56:00
4:56 AM,41.2,19.9,43,30.24,12.0,ESE,5.8,-,N/A,,Clear,120,2013-12-04 14:56:00
5:56 AM,44.4,13.1,28,30.23,12.0,ESE,5.8,-,N/A,,Clear,120,2013-12-04 15:56:00
6:56 AM,47.3,5.5,18,30.24,12.0,ESE,6.9,-,N/A,,Clear,120,2013-12-04 16:56:00
7:56 AM,56.8,6.8,14,30.26,12.0,SE,8.1,-,N/A,,Clear,130,2013-12-04 17:56:00
8:29 AM,-9999,-9999,N/A,-9999,-9999.0,West,6.9,-,N/A,,Clear,260,2013-12-04 18:29:00
8:34 AM,57.2,41.0,55,30.27,11.0,WSW,8.1,-,N/A,,Clear,250,2013-12-04 18:34:00
8:39 AM,55.4,39.2,54,30.28,12.0,WSW,8.1,-,N/A,,Clear,250,2013-12-04 18:39:00
8:44 AM,55.4,41.0,58,30.28,12.0,West,9.2,-,N/A,,Clear,260,2013-12-04 18:44:00
8:49 AM,55.4,39.2,54,30.29,12.0,WSW,5.8,-,N/A,,Clear,250,2013-12-04 18:49:00
8:54 AM,55.4,39.2,54,30.29,12.0,WSW,5.8,-,N/A,,Clear,240,2013-12-04 18:54:00
8:59 AM,55.4,39.2,54,30.29,12.0,WSW,3.5,-,N/A,,Clear,250,2013-12-04 18:59:00
9:04 AM,57.2,39.2,51,30.29,12.0,WSW,2.3,-,N/A,,Clear,250,2013-12-04 19:04:00
9:09 AM,57.2,37.4,48,30.29,12.0,West,1.2,-,N/A,,Clear,270,2013-12-04 19:09:00
9:14 AM,59.0,37.4,45,30.29,12.0,West,1.2,-,N/A,,Clear,270,2013-12-04 19:14:00
9:19 AM,59.0,35.6,42,30.29,12.0,NNW,1.2,-,N/A,,Clear,340,2013-12-04 19:19:00
9:24 AM,60.8,33.8,36,30.29,12.0,ESE,2.3,-,N/A,,Clear,120,2013-12-04 19:24:00
9:29 AM,60.8,33.8,36,30.29,10.0,ESE,1.2,-,N/A,,Clear,120,2013-12-04 19:29:00
9:34 AM,62.6,32.0,32,30.29,9.0,Calm,Calm,-,N/A,,Clear,0,2013-12-04 19:34:00
9:39 AM,64.4,30.2,28,30.29,12.0,Calm,Calm,-,N/A,,Clear,0,2013-12-04 19:39:00
9:44 AM,64.4,30.2,28,30.29,12.0,WSW,2.3,-,N/A,,Clear,250,2013-12-04 19:44:00
9:49 AM,64.4,24.8,22,30.29,12.0,NW,1.2,-,N/A,,Clear,310,2013-12-04 19:49:00
9:54 AM,64.4,26.6,24,30.28,12.0,South,4.6,-,N/A,,Clear,190,2013-12-04 19:54:00
9:59 AM,66.2,21.2,18,30.28,12.0,SSW,3.5,-,N/A,,Clear,200,2013-12-04 19:59:00
10:04 AM,66.2,14.0,13,30.28,12.0,SSE,3.5,-,N/A,,Clear,160,2013-12-04 20:04:00
10:09 AM,68.0,17.6,15,30.28,12.0,East,1.2,-,N/A,,Clear,100,2013-12-04 20:09:00
10:56 AM,66.9,37.8,34,30.27,12.0,WSW,10.4,16.1,N/A,,Clear,250,2013-12-04 20:56:00
11:56 AM,63.9,44.4,49,30.27,12.0,West,10.4,-,N/A,,Clear,260,2013-12-04 21:56:00
12:56 PM,64.8,49.3,57,30.23,12.0,West,13.8,19.6,N/A,,Clear,260,2013-12-04 22:56:00
1:56 PM,64.6,48.4,56,30.20,12.0,West,3.5,16.1,N/A,,Clear,280,2013-12-04 23:56:00
2:56 PM,69.4,29.1,22,30.19,12.0,SW,4.6,-,N/A,,Clear,220,2013-12-05 00:56:00
3:56 PM,63.3,51.4,65,30.19,12.0,WSW,3.5,-,N/A,,Clear,240,2013-12-05 01:56:00
4:56 PM,57.7,53.1,84,30.21,12.0,West,10.4,-,N/A,,Clear,260,2013-12-05 02:56:00
5:56 PM,54.9,51.1,87,30.24,11.0,West,5.8,-,N/A,,Partly Cloudy,280,2013-12-05 03:56:00
6:56 PM,53.6,49.3,85,30.27,12.0,West,4.6,-,N/A,,Mostly Cloudy,260,2013-12-05 04:56:00
7:01 PM,53.6,50.0,88,30.27,12.0,West,3.5,-,N/A,,Scattered Clouds,260,2013-12-05 05:01:00
7:56 PM,51.1,48.7,92,30.29,12.0,WSW,4.6,-,N/A,,Partly Cloudy,250,2013-12-05 05:56:00
8:06 PM,50.0,50.0,100,30.29,1.6,WSW,4.6,-,N/A,,Partly Cloudy,250,2013-12-05 06:06:00
8:16 PM,50.0,50.0,100,30.30,0.3,West,5.8,-,N/A,Fog,Fog,260,2013-12-05 06:16:00
8:20 PM,50.0,50.0,100,30.31,0.2,West,4.6,-,N/A,Fog,Light Drizzle,260,2013-12-05 06:20:00
8:30 PM,50.0,48.2,94,30.31,8.0,West,3.5,-,N/A,Fog-Rain,Light Rain Showers,260,2013-12-05 06:30:00
8:35 PM,50.0,50.0,100,30.31,0.5,West,3.5,-,N/A,Fog-Rain,Light Rain Showers,260,2013-12-05 06:35:00
8:40 PM,50.0,50.0,100,30.32,0.1,West,2.3,-,N/A,Fog-Rain,Light Rain Showers,260,2013-12-05 06:40:00
8:41 PM,50.0,50.0,100,30.32,0.1,West,2.3,-,N/A,Fog,Patches of Fog,260,2013-12-05 06:41:00
8:56 PM,49.8,49.1,97,30.32,0.2,North,3.5,-,N/A,Fog,Patches of Fog,10,2013-12-05 06:56:00
9:01 PM,50.0,48.2,94,30.32,0.3,ESE,2.3,-,N/A,Fog,Patches of Fog,120,2013-12-05 07:01:00
9:06 PM,48.2,48.2,100,30.31,1.2,East,3.5,-,N/A,Fog,Patches of Fog,100,2013-12-05 07:06:00
9:11 PM,48.2,48.2,100,30.31,12.0,ESE,3.5,-,N/A,Fog,Patches of Fog,120,2013-12-05 07:11:00
9:56 PM,52.9,41.5,65,30.28,12.0,ESE,5.8,21.9,N/A,,Clear,110,2013-12-05 07:56:00
10:56 PM,54.0,36.9,52,30.27,12.0,ESE,15.0,24.2,N/A,,Clear,120,2013-12-05 08:56:00
11:56 PM,52.9,33.3,47,30.27,12.0,SSW,1.2,13.8,N/A,,Clear,200,2013-12-05 09:56:00